DW6942 Weather Reports


Display with metric or nautical units.
time (UTC)temp
F
wind
direction
speed
MPH
gust
MPH
rain 1hr
in
rain 24hr
in
rain mn
in
humidity
%
barometer
mb
20260505000019 77 118 2.0 10.0 0.00 0.00 0.00 68 1011.5
20260504234518 78 165 1.0 7.0 0.00 0.00 0.00 67 1011.7
20260504233018 78 212 1.0 6.0 0.00 0.00 0.00 66 1011.7
20260504231516 79 146 1.0 11.0 0.00 0.00 0.00 65 1011.7
20260504230015 79 173 2.0 8.0 0.00 0.00 0.00 64 1012.0
20260504224513 79 205 2.0 10.0 0.00 0.00 0.00 63 1011.9
20260504223012 80 135 1.0 7.0 0.00 0.00 0.00 62 1012.2
20260504221516 80 122 2.0 7.0 0.00 0.00 0.00 61 1012.4
20260504220009 80 193 1.0 6.0 0.00 0.00 0.00 60 1012.5
20260504214508 81 247 1.0 6.0 0.00 0.00 0.00 60 1012.6
20260504213008 81 238 0.0 7.0 0.00 0.00 0.00 60 1012.8
20260504211506 82 108 3.0 7.0 0.00 0.00 0.00 58 1013.1
20260504210004 81 125 2.0 8.0 0.00 0.00 0.00 59 1013.1
20260504204502 82 221 1.0 7.0 0.00 0.00 0.00 59 1013.5
20260504203059 81 212 1.0 9.0 0.00 0.00 0.00 59 1013.7
20260504201556 81 123 2.0 6.0 0.00 0.00 0.00 58 1014.1
20260504200057 80 149 2.0 7.0 0.00 0.00 0.00 59 1014.4
20260504194550 80 246 2.0 6.0 0.00 0.00 0.00 59 1014.6
20260504193049 80 59 2.0 7.0 0.00 0.00 0.00 59 1014.8
20260504191555 79 160 2.0 8.0 0.00 0.00 0.00 59 1014.9
20260504190052 80 133 1.0 6.0 0.00 0.00 0.00 58 1015.3
20260504184554 80 283 2.0 6.0 0.00 0.00 0.00 59 1015.4
20260504183049 79 190 1.0 7.0 0.00 0.00 0.00 59 1015.6
20260504181547 79 214 2.0 8.0 0.00 0.00 0.00 60 1015.7
20260504180039 80 172 4.0 10.0 0.00 0.00 0.00 57 1016.0
20260504174535 79 223 1.0 6.0 0.00 0.00 0.00 60 1016.0
20260504173033 78 225 2.0 6.0 0.00 0.00 0.00 60 1016.3
20260504171530 78 114 2.0 9.0 0.00 0.00 0.00 59 1016.5
20260504081523 56 153 0.0 0.0 0.00 0.00 0.00 84 1017.9
20260504044602 59 153 0.0 0.0 0.00 0.00 0.00 77 1019.8
20260504043058 60 153 0.0 0.0 0.00 0.00 0.00 76 1019.9
20260504041554 60 153 0.0 0.0 0.00 0.00 0.00 75 1019.9
20260504040103 61 153 0.0 0.0 0.00 0.00 0.00 74 1019.9
20260504034559 62 153 0.0 0.0 0.00 0.00 0.00 74 1019.9
20260504033125 62 153 0.0 0.0 0.00 0.00 0.00 73 1019.8
20260504031550 63 141 0.0 0.0 0.00 0.00 0.00 72 1019.9
20260504030050 64 165 0.0 0.0 0.00 0.00 0.00 72 1019.8
20260504024550 66 129 0.0 1.0 0.00 0.00 0.00 69 1019.6
20260504023100 65 137 0.0 1.0 0.00 0.00 0.00 67 1019.5
20260504021552 64 103 0.0 1.0 0.00 0.00 0.00 69 1019.5
20260504020056 65 226 0.0 0.0 0.00 0.00 0.00 69 1019.3
20260504014550 66 226 0.0 0.0 0.00 0.00 0.00 68 1019.1
20260504013058 68 226 0.0 0.0 0.00 0.00 0.00 65 1019.1
20260504011547 68 226 0.0 0.0 0.00 0.00 0.00 61 1018.9
20260504010053 69 226 0.0 0.0 0.00 0.00 0.00 60 1018.8
20260504004559 72 226 0.0 0.0 0.00 0.00 0.00 57 1018.8
20260504003043 74 238 0.0 1.0 0.00 0.00 0.00 47 1018.9
20260504001543 75 145 1.0 3.0 0.00 0.00 0.00 44 1018.9